When you browse on this site, cookies collect data to enhance your experience and personalize the content and advertising you see.
Visit our Privacy Policy to learn more. By continuing to use the site, you agree to this use of cookies and data.
  • In Sweden
  • List of Countries
  • For 7 days
  • Water Temperature
  • Satellite Maps
  • Weather Map
  • Weather Widgets
  • user-avatar
    Login

    Hourly Weather Malanje

    Today, 19 July, Friday

    Time Temperature Precipitation Wind Pressure Humidity
    00:00 +20°C° 0 mm 1 mps 665 mmHg 28%
    01:00 +19°C° 0 mm 1 mps 665 mmHg 29%
    02:00 +16°C° 0 mm 1 mps 665 mmHg 32%
    03:00 +15°C° 0 mm 1 mps 665 mmHg 34%
    04:00 +14°C° 0 mm 1 mps 664 mmHg 36%
    05:00 +14°C° 0 mm 1 mps 665 mmHg 36%
    06:00 +14°C° 0 mm 1 mps 665 mmHg 36%
    07:00 +14°C° 0 mm 1 mps 666 mmHg 36%
    08:00 +18°C° 0 mm 2 mps 666 mmHg 30%
    09:00 +22°C° 0 mm 3 mps 667 mmHg 23%
    10:00 +27°C° 0 mm 4 mps 668 mmHg 17%
    11:00 +29°C° 0 mm 3 mps 668 mmHg 15%
    12:00 +31°C° 0 mm 3 mps 667 mmHg 13%
    13:00 +34°C° 0 mm 3 mps 667 mmHg 11%
    14:00 +34°C° 0 mm 2 mps 667 mmHg 11%
    15:00 +34°C° 0 mm 2 mps 666 mmHg 10%
    16:00 +34°C° 0 mm 2 mps 665 mmHg 10%
    17:00 +30°C° 0 mm 2 mps 665 mmHg 13%
    18:00 +27°C° 0 mm 1 mps 665 mmHg 15%
    19:00 +23°C° 0 mm 1 mps 664 mmHg 18%
    20:00 +22°C° 0 mm 1 mps 664 mmHg 19%
    21:00 +21°C° 0 mm 1 mps 665 mmHg 20%
    22:00 +20°C° 0 mm 1 mps 665 mmHg 21%
    23:00 +19°C° 0 mm 1 mps 665 mmHg 25%

    Tomorrow, 20 July, Saturday

    Time Temperature Precipitation Wind Pressure Humidity
    00:00 +18°C° 0 mm 1 mps 665 mmHg 30%
    01:00 +15°C° 0 mm 1 mps 664 mmHg 34%
    02:00 +15°C° 0 mm 1 mps 664 mmHg 34%
    03:00 +14°C° 0 mm 1 mps 664 mmHg 35%
    04:00 +13°C° 0 mm 1 mps 664 mmHg 35%
    05:00 +14°C° 0 mm 1 mps 665 mmHg 35%
    06:00 +14°C° 0 mm 1 mps 665 mmHg 35%
    07:00 +14°C° 0 mm 1 mps 666 mmHg 34%
    08:00 +18°C° 0 mm 2 mps 667 mmHg 28%
    09:00 +24°C° 0 mm 2 mps 668 mmHg 22%
    10:00 +28°C° 0 mm 3 mps 669 mmHg 16%
    11:00 +30°C° 0 mm 2 mps 668 mmHg 14%
    12:00 +34°C° 0 mm 2 mps 668 mmHg 11%
    13:00 +36°C° 0 mm 2 mps 668 mmHg 8%
    14:00 +35°C° 0 mm 2 mps 667 mmHg 8%
    15:00 +35°C° 0 mm 2 mps 666 mmHg 8%
    16:00 +35°C° 0 mm 2 mps 666 mmHg 8%
    17:00 +30°C° 0 mm 1 mps 665 mmHg 11%
    18:00 +26°C° 0 mm 1 mps 665 mmHg 13%
    19:00 +23°C° 0 mm 1 mps 665 mmHg 16%
    20:00 +22°C° 0 mm 1 mps 665 mmHg 22%
    21:00 +21°C° 0 mm 1 mps 665 mmHg 29%
    22:00 +18°C° 0 mm 2 mps 665 mmHg 36%
    23:00 +17°C° 0 mm 2 mps 665 mmHg 47%

    Day after tomorrow, 21 July, Sunday

    Time Temperature Precipitation Wind Pressure Humidity
    00:00 +16°C° 0 mm 2 mps 665 mmHg 59%
    01:00 +15°C° 0 mm 1 mps 664 mmHg 70%
    02:00 +14°C° 0 mm 1 mps 664 mmHg 78%
    03:00 +14°C° 0 mm 1 mps 664 mmHg 85%
    04:00 +13°C° 0 mm 1 mps 664 mmHg 93%
    05:00 +13°C° 0 mm 1 mps 665 mmHg 91%
    06:00 +14°C° 0 mm 1 mps 665 mmHg 89%
    07:00 +14°C° 0 mm 1 mps 666 mmHg 87%
    08:00 +19°C° 0 mm 1 mps 667 mmHg 66%
    09:00 +24°C° 0 mm 1 mps 668 mmHg 45%
    10:00 +28°C° 0 mm 1 mps 669 mmHg 23%
    11:00 +30°C° 0 mm 1 mps 669 mmHg 19%
    12:00 +34°C° 0 mm 2 mps 668 mmHg 15%
    13:00 +36°C° 0 mm 2 mps 668 mmHg 11%
    14:00 +35°C° 0 mm 2 mps 667 mmHg 11%
    15:00 +35°C° 0 mm 2 mps 667 mmHg 11%
    16:00 +35°C° 0 mm 2 mps 666 mmHg 11%
    17:00 +31°C° 0 mm 2 mps 666 mmHg 14%
    18:00 +27°C° 0 mm 1 mps 665 mmHg 17%
    19:00 +24°C° 0 mm 1 mps 665 mmHg 19%
    20:00 +23°C° 0 mm 1 mps 665 mmHg 30%
    21:00 +20°C° 0 mm 2 mps 665 mmHg 40%
    22:00 +19°C° 0 mm 2 mps 666 mmHg 50%
    23:00 +18°C° 0 mm 2 mps 665 mmHg 60%

    22 July, Monday

    Time Temperature Precipitation Wind Pressure Humidity
    00:00 +17°C° 0 mm 2 mps 665 mmHg 69%
    01:00 +16°C° 0 mm 2 mps 665 mmHg 79%
    02:00 +15°C° 0 mm 2 mps 665 mmHg 85%
    03:00 +14°C° 0 mm 2 mps 665 mmHg 91%
    04:00 +14°C° 0 mm 2 mps 664 mmHg 97%
    05:00 +14°C° 0 mm 2 mps 665 mmHg 95%
    06:00 +15°C° 0 mm 2 mps 666 mmHg 93%
    07:00 +15°C° 0 mm 2 mps 666 mmHg 90%
    08:00 +19°C° 0 mm 2 mps 667 mmHg 71%
    09:00 +23°C° 0 mm 2 mps 668 mmHg 52%
    10:00 +27°C° 0 mm 2 mps 668 mmHg 32%
    11:00 +30°C° 0 mm 2 mps 668 mmHg 26%
    12:00 +32°C° 0 mm 2 mps 668 mmHg 19%
    13:00 +35°C° 0 mm 2 mps 667 mmHg 13%
    14:00 +35°C° 0 mm 2 mps 667 mmHg 12%
    15:00 +35°C° 0 mm 2 mps 666 mmHg 12%
    16:00 +35°C° 0 mm 2 mps 665 mmHg 11%
    17:00 +31°C° 0 mm 2 mps 665 mmHg 15%
    18:00 +28°C° 0 mm 1 mps 665 mmHg 18%
    19:00 +24°C° 0 mm 1 mps 665 mmHg 21%
    20:00 +23°C° 0 mm 1 mps 665 mmHg 36%
    21:00 +20°C° 0 mm 2 mps 665 mmHg 51%
    22:00 +18°C° 0 mm 2 mps 665 mmHg 66%
    23:00 +17°C° 0 mm 2 mps 664 mmHg 72%

    23 July, Tuesday

    Time Temperature Precipitation Wind Pressure Humidity
    00:00 +16°C° 0 mm 2 mps 664 mmHg 77%
    01:00 +15°C° 0 mm 1 mps 664 mmHg 83%
    02:00 +14°C° 0 mm 1 mps 664 mmHg 87%
    03:00 +14°C° 0 mm 1 mps 664 mmHg 90%
    04:00 +13°C° 0 mm 1 mps 664 mmHg 94%
    05:00 +14°C° 0 mm 1 mps 664 mmHg 91%
    06:00 +14°C° 0 mm 1 mps 665 mmHg 89%
    07:00 +14°C° 0 mm 1 mps 666 mmHg 86%
    08:00 +20°C° 0 mm 1 mps 667 mmHg 65%
    09:00 +25°C° 0 mm 2 mps 667 mmHg 44%
    10:00 +29°C° 0 mm 2 mps 668 mmHg 23%
    11:00 +31°C° 0 mm 2 mps 668 mmHg 20%
    12:00 +34°C° 0 mm 2 mps 667 mmHg 16%
    13:00 +35°C° 0 mm 3 mps 667 mmHg 13%
    14:00 +35°C° 0 mm 2 mps 666 mmHg 13%
    15:00 +35°C° 0 mm 2 mps 666 mmHg 12%
    16:00 +35°C° 0 mm 2 mps 665 mmHg 12%
    17:00 +31°C° 0 mm 2 mps 665 mmHg 15%
    18:00 +27°C° 0 mm 1 mps 665 mmHg 18%
    19:00 +24°C° 0 mm 1 mps 665 mmHg 20%
    20:00 +23°C° 0 mm 1 mps 665 mmHg 27%
    21:00 +20°C° 0 mm 2 mps 665 mmHg 34%
    22:00 +19°C° 0 mm 2 mps 665 mmHg 41%
    23:00 +19°C° 0 mm 1 mps 664 mmHg 54%

    24 July, Wednesday

    Time Temperature Precipitation Wind Pressure Humidity
    00:00 +16°C° 0 mm 1 mps 664 mmHg 68%
    01:00 +15°C° 0 mm 1 mps 663 mmHg 81%
    02:00 +15°C° 0 mm 1 mps 663 mmHg 84%
    03:00 +14°C° 0 mm 1 mps 663 mmHg 86%
    04:00 +14°C° 0 mm 1 mps 664 mmHg 89%
    05:00 +14°C° 0 mm 1 mps 664 mmHg 84%
    06:00 +14°C° 0 mm 0 mps 665 mmHg 79%
    07:00 +15°C° 0 mm 0 mps 666 mmHg 75%
    08:00 +20°C° 0 mm 0 mps 667 mmHg 58%
    09:00 +25°C° 0 mm 0 mps 668 mmHg 41%
    10:00 +30°C° 0 mm 0 mps 669 mmHg 25%
    11:00 +33°C° 0 mm 1 mps 669 mmHg 21%
    12:00 +35°C° 0 mm 1 mps 668 mmHg 18%
    13:00 +36°C° 0 mm 1 mps 668 mmHg 14%
    14:00 +37°C° 0 mm 2 mps 667 mmHg 14%
    15:00 +36°C° 0 mm 2 mps 666 mmHg 14%
    16:00 +35°C° 0 mm 2 mps 666 mmHg 14%
    17:00 +31°C° 0 mm 2 mps 665 mmHg 17%
    18:00 +28°C° 0 mm 2 mps 665 mmHg 20%
    19:00 +25°C° 0 mm 2 mps 665 mmHg 23%
    20:00 +23°C° 0 mm 2 mps 665 mmHg 33%
    21:00 +21°C° 0 mm 2 mps 665 mmHg 42%
    22:00 +19°C° 0 mm 2 mps 665 mmHg 52%
    23:00 +18°C° 0 mm 2 mps 665 mmHg 59%
    Show more